TimeCDT,TemperatureF,Dew PointF,Humidity,Sea Level PressureIn,VisibilityMPH,Wind Direction,Wind SpeedMPH,Gust SpeedMPH,PrecipitationIn,Events,Conditions,WindDirDegrees,DateUTC
12:15 AM,50.0,33.8,54,30.16,10.0,North,6.9,-,N/A,,Partly Cloudy,10,2012-10-08 05:15:00
12:55 AM,50.0,33.8,54,30.15,10.0,North,6.9,-,N/A,,Mostly Cloudy,350,2012-10-08 05:55:00
1:15 AM,50.0,33.8,54,30.16,10.0,North,8.1,-,N/A,,Overcast,10,2012-10-08 06:15:00
1:35 AM,50.0,33.8,54,30.17,10.0,North,8.1,-,N/A,,Overcast,350,2012-10-08 06:35:00
1:55 AM,50.0,33.8,54,30.18,10.0,North,8.1,-,N/A,,Overcast,360,2012-10-08 06:55:00
2:15 AM,50.0,33.8,54,30.16,10.0,North,9.2,-,N/A,,Mostly Cloudy,10,2012-10-08 07:15:00
2:55 AM,50.0,33.8,54,30.16,10.0,North,10.4,20.7,N/A,,Light Drizzle,10,2012-10-08 07:55:00
3:15 AM,48.2,33.8,58,30.15,10.0,North,9.2,-,N/A,Rain,Light Rain,10,2012-10-08 08:15:00
3:35 AM,48.2,33.8,58,30.16,10.0,North,10.4,20.7,N/A,,Mostly Cloudy,350,2012-10-08 08:35:00
3:55 AM,48.2,33.8,58,30.16,10.0,North,8.1,-,N/A,,Overcast,10,2012-10-08 08:55:00
4:15 AM,48.2,33.8,58,30.18,10.0,North,6.9,-,N/A,,Overcast,350,2012-10-08 09:15:00
4:35 AM,48.2,33.8,58,30.18,10.0,North,10.4,-,N/A,,Overcast,10,2012-10-08 09:35:00
4:55 AM,48.2,33.8,58,30.20,10.0,North,10.4,-,N/A,,Overcast,350,2012-10-08 09:55:00
5:15 AM,48.2,33.8,58,30.19,10.0,Calm,Calm,-,N/A,,Overcast,0,2012-10-08 10:15:00
5:35 AM,48.2,32.0,54,30.18,2.0,NNE,6.9,-,0.07,Rain,Rain,20,2012-10-08 10:35:00
5:55 AM,48.2,32.0,54,30.20,8.0,NNW,6.9,-,0.08,,Scattered Clouds,330,2012-10-08 10:55:00
6:15 AM,48.2,32.0,54,30.21,3.0,North,9.2,-,N/A,Rain,Light Rain,350,2012-10-08 11:15:00
6:35 AM,48.2,32.0,54,30.21,3.0,North,9.2,-,0.02,Rain,Light Rain,350,2012-10-08 11:35:00
6:55 AM,48.2,32.0,54,30.21,7.0,North,8.1,-,0.03,Rain,Light Rain,10,2012-10-08 11:55:00
7:15 AM,48.2,32.0,54,30.22,7.0,NNE,6.9,-,N/A,,Mostly Cloudy,20,2012-10-08 12:15:00
7:35 AM,48.2,32.0,54,30.22,8.0,North,6.9,-,N/A,,Scattered Clouds,10,2012-10-08 12:35:00
7:55 AM,48.2,32.0,54,30.23,9.0,NNE,6.9,-,N/A,,Scattered Clouds,20,2012-10-08 12:55:00
8:15 AM,48.2,33.8,58,30.23,9.0,NNE,5.8,-,N/A,,Partly Cloudy,30,2012-10-08 13:15:00
8:35 AM,50.0,33.8,54,30.23,10.0,NNE,6.9,-,N/A,,Partly Cloudy,30,2012-10-08 13:35:00
8:55 AM,51.8,35.6,54,30.24,9.0,NE,4.6,-,N/A,,Partly Cloudy,40,2012-10-08 13:55:00
9:15 AM,51.8,35.6,54,30.24,9.0,NNE,5.8,-,N/A,,Partly Cloudy,20,2012-10-08 14:15:00
9:35 AM,53.6,37.4,54,30.25,9.0,NNE,9.2,18.4,N/A,,Partly Cloudy,20,2012-10-08 14:35:00
9:55 AM,53.6,37.4,54,30.25,10.0,North,6.9,25.3,N/A,,Scattered Clouds,10,2012-10-08 14:55:00
10:15 AM,55.4,39.2,54,30.24,10.0,NE,6.9,-,N/A,,Partly Cloudy,50,2012-10-08 15:15:00
10:55 AM,59.0,42.8,55,30.23,10.0,NE,5.8,-,N/A,,Clear,40,2012-10-08 15:55:00
11:15 AM,59.0,42.8,55,30.23,9.0,North,6.9,-,N/A,,Partly Cloudy,10,2012-10-08 16:15:00
11:35 AM,59.0,42.8,55,30.23,9.0,NNW,5.8,-,N/A,,Partly Cloudy,330,2012-10-08 16:35:00
11:55 AM,60.8,42.8,52,30.22,9.0,NNW,6.9,-,N/A,,Scattered Clouds,330,2012-10-08 16:55:00
12:15 PM,60.8,42.8,52,30.22,10.0,NE,5.8,-,N/A,,Scattered Clouds,50,2012-10-08 17:15:00
12:55 PM,62.6,46.4,55,30.21,10.0,NW,6.9,-,N/A,,Partly Cloudy,320,2012-10-08 17:55:00
1:15 PM,64.4,46.4,52,30.20,10.0,NNW,6.9,-,N/A,,Scattered Clouds,330,2012-10-08 18:15:00
1:35 PM,62.6,44.6,52,30.19,9.0,North,5.8,-,N/A,,Scattered Clouds,10,2012-10-08 18:35:00
1:55 PM,62.6,44.6,52,30.18,9.0,North,5.8,-,N/A,,Scattered Clouds,10,2012-10-08 18:55:00
2:15 PM,60.8,44.6,55,30.17,9.0,North,9.2,-,N/A,,Mostly Cloudy,360,2012-10-08 19:15:00
2:35 PM,62.6,46.4,55,30.16,10.0,NNE,3.5,-,N/A,,Mostly Cloudy,20,2012-10-08 19:35:00
2:55 PM,60.8,44.6,55,30.16,10.0,NNW,5.8,-,N/A,,Overcast,340,2012-10-08 19:55:00
3:15 PM,60.8,44.6,55,30.16,10.0,North,6.9,-,N/A,,Overcast,350,2012-10-08 20:15:00
3:35 PM,60.8,44.6,55,30.16,10.0,North,5.8,-,N/A,,Overcast,360,2012-10-08 20:35:00
3:55 PM,60.8,44.6,55,30.15,9.0,North,6.9,-,N/A,,Overcast,350,2012-10-08 20:55:00
4:15 PM,60.8,42.8,52,30.15,10.0,North,4.6,-,N/A,,Overcast,360,2012-10-08 21:15:00
4:35 PM,60.8,44.6,55,30.15,10.0,Calm,Calm,-,N/A,,Overcast,0,2012-10-08 21:35:00
4:55 PM,60.8,44.6,55,30.15,8.0,North,3.5,-,N/A,,Mostly Cloudy,10,2012-10-08 21:55:00
5:15 PM,60.8,42.8,52,30.15,10.0,NNW,4.6,-,N/A,,Overcast,330,2012-10-08 22:15:00
5:35 PM,57.2,42.8,59,30.15,9.0,Calm,Calm,-,N/A,,Overcast,0,2012-10-08 22:35:00
5:55 PM,57.2,39.2,51,30.15,9.0,Calm,Calm,-,N/A,,Mostly Cloudy,0,2012-10-08 22:55:00
6:35 PM,55.4,39.2,54,30.15,10.0,Calm,Calm,-,N/A,,Overcast,0,2012-10-08 23:35:00
6:55 PM,53.6,37.4,54,30.15,10.0,Calm,Calm,-,N/A,,Overcast,0,2012-10-08 23:55:00
7:15 PM,53.6,37.4,54,30.15,10.0,Calm,Calm,-,N/A,,Mostly Cloudy,0,2012-10-09 00:15:00
7:35 PM,51.8,35.6,54,30.15,8.0,Calm,Calm,-,N/A,,Mostly Cloudy,0,2012-10-09 00:35:00
7:55 PM,51.8,35.6,54,30.16,8.0,Calm,Calm,-,N/A,,Overcast,0,2012-10-09 00:55:00
8:15 PM,51.8,35.6,54,30.16,9.0,Calm,Calm,-,N/A,,Overcast,0,2012-10-09 01:15:00
8:35 PM,53.6,37.4,54,30.16,9.0,Calm,Calm,-,N/A,,Overcast,0,2012-10-09 01:35:00
8:55 PM,51.8,35.6,54,30.16,8.0,Calm,Calm,-,N/A,,Overcast,0,2012-10-09 01:55:00
9:35 PM,51.8,35.6,54,30.18,9.0,Calm,Calm,-,N/A,,Overcast,0,2012-10-09 02:35:00
9:55 PM,53.6,37.4,54,30.18,8.0,Calm,Calm,-,N/A,,Overcast,0,2012-10-09 02:55:00
10:15 PM,53.6,37.4,54,30.18,9.0,Calm,Calm,-,N/A,,Overcast,0,2012-10-09 03:15:00
10:55 PM,53.6,37.4,54,30.17,9.0,Calm,Calm,-,N/A,,Overcast,0,2012-10-09 03:55:00
11:15 PM,51.8,35.6,54,30.16,4.0,Calm,Calm,-,N/A,,Haze,0,2012-10-09 04:15:00
11:35 PM,51.8,35.6,54,30.16,5.0,Calm,Calm,-,N/A,,Haze,0,2012-10-09 04:35:00